Retour au catalogue

ATLAS 5 CENTAUR DEB

LostHEO
NORAD 49367·DEBRIS·🇺🇸 United States

Lancé Oct 17, 2018 depuis Cape Canaveral Space Force Station

Loading…

Prochains Passages (prochaines 24 heures)

TLE

PériméSource: Space-Track

Époque: Aug 23, 2023, 07:59 UTC

1 49367U 18079FU  23235.33267667 -.00000033  00000-0  00000+0 0  9995
2 49367  11.0608 149.4284 4659998  77.7879 328.9837  1.63593571 11556

Suivez ATLAS 5 CENTAUR DEB en temps réel avec AllMySat

Download on the App Store